Regional Weather Roundup
Issued by NWS

Home | Current Version | Previous Version | Graphics & Text | Print | Product List | Glossary On
Versions: 1 2 3 4 5 6 7 8 9 10 11 12 13 14 15 16 17 18 19 20 21 22 23 24 25 26 27 28 29 30 31 32 33 34 35 36 37 38 39 40 41 42 43 44 45 46 47 48 49 50
000
ASUS43 KIND 190509
RWRIN

WEATHER ROUNDUP FOR INDIANA
NATIONAL WEATHER SERVICE INDIANAPOLIS IN
100 AM EDT THU APR 19 2018

NOTE: "FAIR" INDICATES FEW OR NO CLOUDS BELOW 12,000 FEET WITH NO
SIGNIFICANT WEATHER AND/OR OBSTRUCTIONS TO VISIBILITY.

* - STATION DOES NOT REPORT WEATHER SUCH AS PRECIPITATION OR FOG.

+ - STATION NOT QUALITY CONTROLLED BY THE NATIONAL WEATHER SERVICE.
    USE DATA WITH CAUTION...ESPECIALLY DEWPOINT AND RELATIVE
    HUMIDITY OBSERVATIONS.

INZ001>003-010>013-019-020-190600-
NORTHWEST INDIANA

CITY           SKY/WX    TMP DP  RH WIND       PRES   REMARKS
GARY /AIRPORT/ LGT SNOW  34  34 100 NW9       29.93R WCI  26
KNOX *+        CLOUDY    34  34 100 W10       29.87S WCI  26
LA PORTE +     MIX PCPN  34  33  97 NW5       29.88R WCI  30
MICHIGAN CITY+ RAIN      34  34 100 N7        29.89R WCI  28
MONTICELLO +   LGT SNOW  34  32  94 W14G21    29.90R WCI  24
RENSSELAER +   RAIN      34  32  93 W14       29.91S WCI  24
VALPARAISO     CLOUDY    35  33  92 W9        29.89R FOG     WCI  28

$$

LMZ046-743>745-190600-
SOUTHERN LAKE MICHIGAN

STATION/POSITION TIME  TEMP    WIND        PRES    WAVE
                       AIR SEA DIR/SP/G            HT
                 (UTC) (F)     (DEG/KT/KT) (MB)    (FT)
BURNS HARBOR     0440   35      10/ 14/ 18 1012.9R
MICHIGAN CITY    0440   34      10/ 21/ 23   N/A

$$

INZ004-005-014>016-021>024-190600-
NORTH CENTRAL INDIANA

CITY           SKY/WX    TMP DP  RH WIND       PRES   REMARKS
GOSHEN         LGT RAIN  37  35  92 NE10      29.84R FOG     WCI  30
LOGANSPORT +   LGT RAIN  34  32  93 W14       29.89R WCI  24
PERU/GRISSOM   CLOUDY    36  36 100 W17G23    29.86R WCI  25
ROCHESTER +    LGT RAIN  37  36  93 W8        29.86R WCI  31
SOUTH BEND     LGT RAIN  34  33  96 N9        29.87R FOG     WCI  27
WARSAW +       RAIN      36  36 100 NW5       29.84R WCI  32

$$

INZ006>009-017-018-025>027-190600-
NORTHEAST INDIANA

CITY           SKY/WX    TMP DP  RH WIND       PRES   REMARKS
ANGOLA *+      MOCLDY    34  34 100 NE6       29.83S FOG     WCI  29
AUBURN +       CLOUDY    34  34 100 NE6       29.83F FOG     WCI  29
FORT WAYNE     LGT RAIN  36  36 100 SE3       29.84R FOG
HUNTINGTON +   DRIZZLE   37  36  96 W8G17     29.84R WCI  31
KENDALLVILLE + CLOUDY    34  34 100 NE5       29.83S FOG     WCI  30

$$

INZ028-029-035-036-043>045-051>053-190600-
WEST CENTRAL INDIANA

CITY           SKY/WX    TMP DP  RH WIND       PRES   REMARKS
CRAWFORDSVL +  CLOUDY    34  32  91 W15       29.93R WCI  24
GREENCASTLE +  CLOUDY    36  28  75 W8G18     29.94R WCI  29
LAFAYETTE      CLOUDY    35  31  85 W12G21    29.92R WCI  27
TERRE HAUTE    CLOUDY    38  29  70 W16G30    29.98R WCI  29

$$

INZ030>032-037>040-046>048-054>057-064-065-190600-
CENTRAL INDIANA

CITY           SKY/WX    TMP DP  RH WIND       PRES   REMARKS
FISHERS *+     CLOUDY    36  36 100 W15       29.90R WCI  26
FRANKFORT +    CLOUDY    38  32  80 NW20G26   29.92R WCI  27
GREENWOOD *+   CLOUDY    38  28  65 W15G28    29.91R WCI  30
INDIANAPOLIS   CLOUDY    38  30  73 NW16G26   29.91R WCI  29
-EAGLE CREEK   CLOUDY    39  29  67 NW18      29.90R WCI  30
KOKOMO +       MIX PCPN  36  32  85 W17       29.87R WCI  26
MARION +       CLOUDY    36  32  85 W17       29.86S WCI  26
MT COMFORT *+  CLOUDY    36  34  93 NW23G29   29.89S WCI  24
SHELBYVILLE    CLOUDY    41  28  60 W21G30    29.89R
ZIONSVILLE +   CLOUDY    34  32  94 W13       29.90S WCI  25

$$

INZ033-034-041-042-049-050-058-059-190600-
EAST CENTRAL INDIANA

CITY           SKY/WX    TMP DP  RH WIND       PRES   REMARKS
MUNCIE         CLOUDY    39  32  76 W17G24    29.86R WCI  30
RICHMOND +     CLOUDY    37  32  81 W22G37    29.85R WCI  27

$$

INZ060-061-067>069-081>083-085>088-190600-
SOUTHWEST INDIANA

CITY           SKY/WX    TMP DP  RH WIND       PRES   REMARKS
EVANSVILLE     CLOUDY    44  33  65 NW17G30   30.03R
HUNTINGBURG +  CLOUDY    42  32  67 NW18G28   30.00R
WASHINGTON +   CLOUDY    40  28  61 NW20      30.00R WCI  31

$$

INZ062-063-066-070>080-084-089>092-190600-
SOUTH CENTRAL AND SOUTHEAST INDIANA

CITY           SKY/WX    TMP DP  RH WIND       PRES   REMARKS
BATESVILLE +   CLOUDY    41  32  70 MISG      29.88R
BEDFORD +      CLOUDY    41  28  60 W9G18     29.95R
BLOOMINGTON    CLOUDY    39  27  62 W16G26    29.94R WCI  30
FRENCH LICK *+ CLOUDY    41  27  56 W10G21    29.98R
MADISON *+     CLOUDY    43  30  61 W12G26    29.93R
NORTH VERNON + CLOUDY    41  30  65 W21G26    29.92R
SEYMOUR +      CLOUDY    43  30  61 NW14G28   29.94R

$$





USA.gov is the U.S. government's official web portal to all federal, state and local government web resources and services.